Current weather by "City, St" or "zip code"  
 

Current Conditions: Pioneer Airfield, AZ

Fair


78.0 F

Last Updated on Sep 18 2020, 8:56 am MST
Humidity: 28%
Wind Speed: E 8.1 mph
Barometer 30.25 in
Dewpoint: 42.1 F
Visibility: 10.00 mi
Precip: --
Heat Index: NA
Wind Chill: NA
Current conditions at:

Pioneer Airfield, AZ (KALK)

Lat: 31.60564 Lon: 110.4281

Local Radar Image active severe weather and emergency alerts image image weather storm and storm spotter reports image weather observation monitoring service image
Local
Radar
Active
Alerts
Storm Reports Obs
Monitoring

Sign-up For Email & Text Message Weather Alert Notification Services



Advertise Here

Observation History for Pioneer Airfield, AZ


Time Wind
(mph)
Vis
(mi)
Weather Precip (in) Temperature (F) Relative
Humidity
Wind
Chill
(F)
Heat
Index
(F)
Pressure
Air Dwpt altimeter
(in)
sea level
(mb)
Rmks
8:56 am MST E 8.1 10.00 Fair -- 78.0 42.1 28% NA NA 30.25 1014.9
7:56 am MST W 3.5 10.00 Fair -- 68.0 39.0 35% NA NA 30.25 1015.3
6:56 am MST N 0.0 10.00 Fair -- 63.0 39.0 41% NA NA 30.24 1015.4
5:56 am MST W 3.5 10.00 Fair -- 65.0 37.9 37% NA NA 30.23 1014.3
4:56 am MST W 4.6 10.00 Fair -- 63.0 37.9 40% 64 NA 30.22 1013.9
3:56 am MST W 4.6 10.00 Fair -- 64.0 37.9 38% NA NA 30.21 1013.3
2:56 am MST NW 4.6 10.00 Fair -- 66.0 37.9 36% NA NA 30.21 1013.3
1:56 am MST NW 3.5 10.00 Fair -- 66.0 37.9 36% NA NA 30.22 1013.4
12:56 am MST 3.5 10.00 Fair -- 68.0 37.9 33% NA NA 30.21 1013.4
11:56 pm MST SE 10.4 10.00 Fair -- 72.0 37.9 29% NA NA 30.21 1012.9
10:56 pm MST SE 8.1 10.00 Fair -- 72.0 37.9 29% NA NA 30.21 1013.2
9:56 pm MST SE 9.2 10.00 Fair -- 74.0 37.0 26% NA NA 30.20 1012.8
8:56 pm MST SE 10.4 10.00 Fair -- 73.0 34.0 24% NA NA 30.20 1013.0
7:56 pm MST SE 8.1 10.00 Fair -- 75.0 36.0 24% NA NA 30.19 1013.0
6:56 pm MST E 5.8 10.00 Fair -- 77.0 36.0 23% NA NA 30.17 1012.8
5:56 pm MST NE 11.5 10.00 Fair -- 83.0 33.1 17% NA 80 30.16 1011.9
4:56 pm MST E 16.1 G 23.0 10.00 Fair -- 86.0 27.0 12% NA 83 30.15 1011.7
3:56 pm MST E 20.7 G 27.6 10.00 A Few Clouds and Breezy -- 89.0 30.9 12% NA 85 30.15 1011.1
2:56 pm MST 10.00 A Few Clouds -- 89.0 34.0 14% NA 85 30.16 1011.3
1:56 pm MST NE 13.8 G 21.9 10.00 Fair -- 89.0 36.0 15% NA 85 30.18 1012.3
12:56 pm MST E 10.4 10.00 Fair -- 87.0 35.1 16% NA 83 30.21 1013.3
11:56 am MST E 17.3 G 25.3 10.00 Fair -- 88.0 35.1 15% NA 84 30.23 1013.8
10:56 am MST E 15.0 G 23.0 8.00 Fair -- 85.0 39.0 20% NA 82 30.25 1014.8
9:56 am MST E 15.0 G 20.7 10.00 Fair -- 83.0 37.9 20% NA 81 30.26 1014.6

Regional Weather Observation


Fort Huachuca, Libby AAF Ft Huachuca, AZ (KFHU)

Fair
79.0 F

Nogales, Nogales International Airport, AZ (KOLS)

Fair
79.0 F

Tucson, Tucson International Airport, AZ (KTUS)

Fair
88.0 F

Davis-Monthan Air Force Base, AZ (KDMA)

Fair
87.0 F

Tucson Ryan Field Airport, AZ (KRYN)

Fair
88.0 F

Bisbee Douglas International Airport, AZ (KDUG)

Mostly Cloudy
76.0 F